Regional Weather Roundup
Issued by NWS

Home | Current Version | Previous Version | Graphics & Text | Print | Product List | Glossary On
Versions: 1 2 3 4 5 6 7 8 9 10 11 12 13 14 15 16 17 18 19 20 21 22 23 24 25 26 27 28 29 30 31 32 33 34 35 36 37 38 39 40 41 42 43 44 45 46 47 48 49 50
000
ASUS43 KMPX 291310
RWRMN
WEATHER ROUNDUP FOR MINNESOTA
NATIONAL WEATHER SERVICE TWIN CITIES/CHANHASSEN MN
800 AM CDT FRI AUG 29 2014


NOTE: "FAIR" INDICATES FEW OR NO CLOUDS BELOW 12,000 FEET WITH NO
SIGNIFICANT WEATHER AND/OR OBSTRUCTIONS TO VISIBILITY. N/A MEANS
CURRENT SKY AND/OR WEATHER CONDITIONS ARE NOT AVAILABLE.

MNZ060>063-068>070-291400-
   Twin Cities Metro

CITY           SKY/WX    TMP DP  RH WIND       PRES   REMARKS
TWIN CITIES    CLOUDY    69  68  96 SE8       29.80F
ST PAUL        CLOUDY    68  67  96 SE10      29.80F
CRYSTAL        CLOUDY    71  67  87 S8        29.78S FOG
BLAINE         CLOUDY    72  70  94 SE7       29.79F FOG
LAKEVILLE      CLOUDY    66  66 100 SE5       29.81F FOG
EDEN PRAIRIE   CLOUDY    70  69  97 SE7       29.79F FOG
SOUTH ST PAUL  CLOUDY    69  67  94 S8        29.80S
LAKE ELMO      CLOUDY    68  68 100 S8        29.82S
$$
MNZ001>005-007-008-013>017-022>024-027-028-291400-
   Northwest Minnesota

CITY           SKY/WX    TMP DP  RH WIND       PRES   REMARKS
BEMIDJI        CLOUDY    63  63  99 SE3       29.80F FOG
HALLOCK        CLOUDY    66  64  94 S5        29.75F FOG
ROSEAU         PTSUNNY   66  61  82 CALM      29.79S
WARROAD        CLOUDY    64  61  88 CALM      29.80F
THIEF RVR FALL CLOUDY    63  63 100 SE3       29.79S
CROOKSTON      CLOUDY    64  63  94 CALM      29.78S
FOSSTON        CLOUDY    63  61  94 CALM      29.80F FOG
DETROIT LAKES    N/A    N/A N/A N/A MISG      29.80S
MOORHEAD       FOG       66  66 100 CALM      29.78S VSB 1/4
PARK RAPIDS    CLOUDY    64  63  96 SE6       29.80R FOG
MAHNOMEN       LGT RAIN  64  63  99 CALM      29.78F
$$
MNZ006-009>011-018-025>026-291400-
   North Central Minnesota

CITY           SKY/WX    TMP DP  RH WIND       PRES   REMARKS
BAUDETTE       CLOUDY    64  61  90 CALM      29.81S
FLAG ISLAND    PTSUNNY   64  63  94 CALM      29.78S
INTL FALLS     CLOUDY    61  60  97 SE3       29.83F
WASKISH        CLOUDY    64  63  94 CALM      29.80F FOG
BIG FORK       HVY RAIN  61  61 100 CALM      29.83F
LONGVILLE      CLOUDY    63  63 100 CALM      29.80S FOG
GRAND RAPIDS   CLOUDY    61  57  88 CALM      29.82S
CRANE LAKE     LGT RAIN  57  57 100 CALM      29.86S
ORR            LGT RAIN  59  57  94 CALM      29.82S
COOK           HVY RAIN  61  59  94 CALM      29.85S
WALKER         CLOUDY    63  63  99 CALM      29.79F FOG
$$
MNZ012-019>021-037-291400-
   Northeast Minnesota

CITY           SKY/WX    TMP DP  RH WIND       PRES   REMARKS
DULUTH         DRZL/FOG  61  59  93 SE10      29.83S VSB 1/2
ELY            RAIN      61  57  88 E3        29.86F
HIBBING        LGT RAIN  61  59  93 E5        29.83F FOG
EVELETH        LGT RAIN  59  59 100 CALM      29.85S
DULUTH HARBOR  TSTM      63  61  94 E7        29.83F
TWO HARBORS    CLOUDY    61  55  82 E8        29.83F
SILVER BAY     CLOUDY    57  57 100 NE5       29.85F FOG
GRAND MARAIS     N/A     62  58  86 NE5       29.89F
G MARAIS ARPRT CLOUDY    57  55  94 E3        29.92S FOG
$$
MNZ029>031-032-039>041-046>048-054>057-064-291400-
   West Central Minnesota

CITY           SKY/WX    TMP DP  RH WIND       PRES   REMARKS
FERGUS FALLS   DRZL/FOG  64  64 100 CALM      29.78S VSB 1/4
WHEATON        CLOUDY    63  63 100 CALM      29.79F FOG
MORRIS         TSTM      66  64  94 CALM      29.78R VSB 1/2
ALEXANDRIA     RAIN      65  64  97 E6        29.80S VSB 1/2
ELBOW LAKE     CLOUDY    64  64  99 CALM      29.78S
WADENA         FOG       63  63 100 CALM      29.79S VSB<1/4
GLENWOOD       TSTM      64  64 100 E6        29.80R VSB 1/2
APPLETON       TSTM      66  64  94 CALM      29.78R VSB 3/4
BENSON         TSTM      64  64 100 CALM      29.79R VSB 1/2
ORTONVILLE     CLOUDY    64  63  94 CALM      29.78S FOG
MADISON        LGT RAIN  68  66  94 CALM      29.77S VSB 1
WILLMAR        FAIR      68  66  94 NW5       29.79R
$$
MNZ033>034-036-042>043-049>051-058-059-291400-
   Central Minnesota

CITY           SKY/WX    TMP DP  RH WIND       PRES   REMARKS
ST CLOUD       CLOUDY    68  66  93 E5        29.77F
SAUK CENTRE    CLOUDY    64  64  99 CALM      29.80R THUNDER FOG
PAYNESVILLE    TSTM      64  64 100 SE6       29.79S
AITKIN         MIX PCPN  66  61  82 CALM      29.79S
PINE RIVER     CLOUDY    64  64 100 CALM      29.83S
BRAINERD       LGT RAIN  63  63 100 CALM      29.80S FOG
STAPLES        CLOUDY    63  63 100 CALM      29.80R FOG
LONG PRAIRIE   CLOUDY    63  63 100 CALM      29.80R FOG
LITTLE FALLS   CLOUDY    64  63  94 CALM      29.79S
LITCHFIELD     CLOUDY    70  70 100 SE5       29.78R THUNDER
BUFFALO        CLOUDY    70  66  88 S5        29.80R
MAPLE LAKE     CLOUDY    70  69  98 S5        29.80R FOG
$$
MNZ037-044-045-052-053-291400-
   East Central Minnesota

CITY           SKY/WX    TMP DP  RH WIND       PRES   REMARKS
PRINCETON      CLOUDY    68  66  94 S2        29.78F
MORA           LGT RAIN  59  57  94 CALM      29.80F
CAMBRIDGE      HVY RAIN  70  63  78 SE6       29.77F VSB 1
RUSH CITY      CLOUDY    64  63  96 SE3       29.80F
MOOSE LAKE     LGT RAIN  61  59  94 CALM      29.80F
HINCKLEY       RAIN      63  63 100 E5        29.79F
CLOQUET        LGT RAIN  63  61  94 SE5       29.82F
MCGREGOR       CLOUDY    63  61  94 SE6       29.80F
$$
MNZ071>073-080-081-089-090-097-098-291400-
   Southwest Minnesota

CITY           SKY/WX    TMP DP  RH WIND       PRES   REMARKS
MONTEVIDEO     TSTM      66  66 100 CALM      29.77F
GRANITE FALLS  TSTM      66  67 100 NW3       29.78S
CANBY          FOG       66  65  99 CALM      29.78F VSB 3/4
MARSHALL       PTSUNNY   66  64  94 CALM      29.77R
REDWOOD FALLS  PTSUNNY   70  66  87 S18       29.77S
OLIVIA         TSTM      70  68  94 S7        29.77S
PIPESTONE      CLOUDY    70  68  94 SW7       29.79S FOG
WINDOM         PTSUNNY   68  64  88 S9        29.81S
WORTHINGTON    CLOUDY    68  66  94 SW7       29.82S
JACKSON        CLOUDY    68  64  88 S8        29.82S
TRACY          PTSUNNY   70  69  95 S8        29.79R FOG
SLAYTON        CLOUDY    68  68  99 CALM      29.81R FOG
$$
MNZ065>067-074>077-082>085-091>093-291400-
   South Central Minnesota

CITY           SKY/WX    TMP DP  RH WIND       PRES   REMARKS
MANKATO        CLOUDY    70  63  78 S6        29.80S
NEW ULM        PTSUNNY   70  70 100 S8        29.79R
ST JAMES       PTSUNNY   70  66  88 S5        29.81S
FAIRMONT       CLOUDY    64  63  94 SW6       29.81R
GLENCOE        PTSUNNY   69  65  86 S6        29.79R
FARIBAULT      CLOUDY    72  64  78 SE7       29.82S
OWATONNA       CLOUDY    70  66  88 CALM      29.82S
WASECA         CLOUDY    66  61  82 CALM      29.83S
ALBERT LEA     CLOUDY    66  66 100 S8        29.81S
$$
MNZ078>079-086>088-094>096-291400-
   Southeast Minnesota

CITY           SKY/WX    TMP DP  RH WIND       PRES   REMARKS
ROCHESTER      CLOUDY    68  66  93 S9        29.86S
RED WING       CLOUDY    70  66  88 SE8       29.82F FOG
STANTON        CLOUDY    69  66  90 SE3       29.80F
DODGE CENTER   CLOUDY    68  66  94 SE9       29.83F
WINONA         CLOUDY    66  64  94 SE6       29.86S FOG
AUSTIN         PTSUNNY   68  66  94 S7        29.83F
PRESTON        CLOUDY    67  67 100 CALM      29.88R FOG
$$
ABBREVIATIONS USED IN REMARKS
   TC - TEMPERATURES IN CELSIUS
  WCI - WIND CHILL INDEX
   HX - HEAT INDEX
  VSB - VISIBILITY
$$



USA.gov is the U.S. government's official web portal to all federal, state and local government web resources and services.